When you browse on this site, cookies collect data to enhance your experience and personalize the content and advertising you see.
Visit our Privacy Policy to learn more. By continuing to use the site, you agree to this use of cookies and data.
  • In Denmark
  • List of Countries
  • For 7 days
  • Water Temperature
  • Satellite Maps
  • Weather Map
  • Weather Widgets
  • user-avatar
    Login

    Hourly Weather Egilsstaðir

    Today, 17 June, Monday

    Time Temperature Precipitation Wind Pressure Humidity
    00:00 +12°C° 0 mm 1 mps 668 mmHg 70%
    01:00 +11°C° 0 mm 1 mps 668 mmHg 78%
    02:00 +11°C° 0 mm 1 mps 668 mmHg 79%
    03:00 +11°C° 0 mm 1 mps 668 mmHg 81%
    04:00 +9°C° 0 mm 2 mps 668 mmHg 82%
    05:00 +9°C° 0 mm 2 mps 668 mmHg 81%
    06:00 +9°C° 0 mm 2 mps 668 mmHg 79%
    07:00 +10°C° 0 mm 2 mps 668 mmHg 79%
    08:00 +10°C° 0 mm 3 mps 668 mmHg 77%
    09:00 +10°C° 0 mm 3 mps 668 mmHg 76%
    10:00 +10°C° 0 mm 3 mps 669 mmHg 74%
    11:00 +10°C° 0 mm 3 mps 669 mmHg 73%
    12:00 +11°C° 0 mm 3 mps 669 mmHg 71%
    13:00 +11°C° 0 mm 3 mps 669 mmHg 69%
    14:00 +11°C° 0 mm 3 mps 669 mmHg 66%
    15:00 +11°C° 0 mm 4 mps 669 mmHg 64%
    16:00 +11°C° 0 mm 4 mps 669 mmHg 61%
    17:00 +11°C° 0 mm 3 mps 668 mmHg 64%
    18:00 +10°C° 0 mm 3 mps 668 mmHg 67%
    19:00 +9°C° 0 mm 2 mps 668 mmHg 70%
    20:00 +8°C° 0 mm 2 mps 667 mmHg 75%
    21:00 +8°C° 0 mm 1 mps 667 mmHg 81%
    22:00 +8°C° 0 mm 1 mps 667 mmHg 86%
    23:00 +7°C° 0 mm 1 mps 666 mmHg 88%

    Tomorrow, 18 June, Tuesday

    Time Temperature Precipitation Wind Pressure Humidity
    00:00 +5°C° 0 mm 0 mps 666 mmHg 90%
    01:00 +5°C° 0 mm 0 mps 665 mmHg 91%
    02:00 +5°C° 0 mm 0 mps 666 mmHg 89%
    03:00 +7°C° 0 mm 1 mps 666 mmHg 87%
    04:00 +8°C° 0 mm 1 mps 666 mmHg 85%
    05:00 +8°C° 0.3 mm 1 mps 666 mmHg 86%
    06:00 +6°C° 0.3 mm 2 mps 665 mmHg 88%
    07:00 +6°C° 0.3 mm 2 mps 665 mmHg 89%
    08:00 +7°C° 0.6 mm 2 mps 665 mmHg 85%
    09:00 +7°C° 0.6 mm 2 mps 666 mmHg 81%
    10:00 +7°C° 0.6 mm 2 mps 666 mmHg 78%
    11:00 +8°C° 0 mm 3 mps 666 mmHg 70%
    12:00 +9°C° 0 mm 3 mps 666 mmHg 63%
    13:00 +11°C° 0 mm 4 mps 667 mmHg 55%
    14:00 +11°C° 0 mm 4 mps 667 mmHg 55%
    15:00 +11°C° 0 mm 4 mps 667 mmHg 54%
    16:00 +10°C° 0 mm 5 mps 667 mmHg 54%
    17:00 +11°C° 0 mm 4 mps 667 mmHg 55%
    18:00 +10°C° 0 mm 3 mps 667 mmHg 56%
    19:00 +10°C° 0 mm 2 mps 666 mmHg 57%
    20:00 +9°C° 0 mm 2 mps 666 mmHg 63%
    21:00 +9°C° 0 mm 1 mps 666 mmHg 68%
    22:00 +6°C° 0 mm 0 mps 666 mmHg 74%
    23:00 +6°C° 0 mm 0 mps 665 mmHg 74%

    Day after tomorrow, 19 June, Wednesday

    Time Temperature Precipitation Wind Pressure Humidity
    00:00 +6°C° 0 mm 0 mps 665 mmHg 74%
    01:00 +7°C° 0 mm 1 mps 665 mmHg 74%
    02:00 +7°C° 1.1 mm 1 mps 665 mmHg 78%
    03:00 +6°C° 1.1 mm 2 mps 665 mmHg 81%
    04:00 +6°C° 1.1 mm 2 mps 665 mmHg 84%
    05:00 +5°C° 1.4 mm 2 mps 665 mmHg 87%
    06:00 +5°C° 1.4 mm 2 mps 665 mmHg 89%
    07:00 +4°C° 1.4 mm 2 mps 665 mmHg 91%
    08:00 +5°C° 0.2 mm 2 mps 665 mmHg 88%
    09:00 +5°C° 0.2 mm 2 mps 666 mmHg 84%
    10:00 +6°C° 0.2 mm 2 mps 666 mmHg 81%
    11:00 +7°C° 0 mm 2 mps 667 mmHg 75%
    12:00 +8°C° 0 mm 2 mps 667 mmHg 69%
    13:00 +9°C° 0 mm 3 mps 667 mmHg 63%
    14:00 +10°C° 0 mm 3 mps 668 mmHg 61%
    15:00 +10°C° 0 mm 3 mps 668 mmHg 58%
    16:00 +10°C° 0 mm 3 mps 668 mmHg 56%
    17:00 +10°C° 0 mm 2 mps 668 mmHg 55%
    18:00 +11°C° 0 mm 1 mps 667 mmHg 54%
    19:00 +11°C° 0 mm 1 mps 667 mmHg 54%
    20:00 +10°C° 0 mm 1 mps 667 mmHg 59%
    21:00 +9°C° 0 mm 1 mps 667 mmHg 64%
    22:00 +8°C° 0 mm 1 mps 667 mmHg 69%
    23:00 +8°C° 0 mm 1 mps 666 mmHg 68%

    20 June, Thursday

    Time Temperature Precipitation Wind Pressure Humidity
    00:00 +8°C° 0 mm 1 mps 666 mmHg 67%
    01:00 +8°C° 0 mm 1 mps 666 mmHg 66%
    02:00 +8°C° 0.1 mm 1 mps 665 mmHg 70%
    03:00 +7°C° 0.1 mm 2 mps 665 mmHg 73%
    04:00 +7°C° 0.1 mm 2 mps 664 mmHg 77%
    05:00 +7°C° 1.6 mm 2 mps 664 mmHg 82%
    06:00 +6°C° 1.6 mm 2 mps 663 mmHg 88%
    07:00 +6°C° 1.6 mm 2 mps 663 mmHg 93%
    08:00 +6°C° 1 mm 2 mps 662 mmHg 93%
    09:00 +6°C° 1 mm 2 mps 662 mmHg 93%
    10:00 +6°C° 1 mm 2 mps 662 mmHg 93%
    11:00 +7°C° 1.1 mm 2 mps 661 mmHg 94%
    12:00 +7°C° 1.1 mm 2 mps 661 mmHg 94%
    13:00 +7°C° 1.1 mm 2 mps 660 mmHg 94%
    14:00 +7°C° 1.9 mm 2 mps 660 mmHg 95%
    15:00 +7°C° 1.9 mm 2 mps 660 mmHg 96%
    16:00 +7°C° 1.9 mm 2 mps 660 mmHg 96%
    17:00 +7°C° 2.5 mm 2 mps 659 mmHg 97%
    18:00 +8°C° 2.5 mm 1 mps 659 mmHg 97%
    19:00 +8°C° 2.5 mm 1 mps 659 mmHg 97%
    20:00 +8°C° 1.1 mm 1 mps 660 mmHg 98%
    21:00 +7°C° 1.1 mm 2 mps 660 mmHg 98%
    22:00 +7°C° 1.1 mm 2 mps 660 mmHg 98%
    23:00 +7°C° 0.2 mm 2 mps 660 mmHg 98%

    21 June, Friday

    Time Temperature Precipitation Wind Pressure Humidity
    00:00 +7°C° 0.2 mm 3 mps 661 mmHg 97%
    01:00 +7°C° 0.2 mm 3 mps 661 mmHg 97%
    02:00 +7°C° 0 mm 3 mps 661 mmHg 96%
    03:00 +5°C° 0 mm 3 mps 662 mmHg 95%
    04:00 +5°C° 0 mm 3 mps 662 mmHg 94%
    05:00 +7°C° 0 mm 3 mps 662 mmHg 89%
    06:00 +6°C° 0 mm 4 mps 663 mmHg 85%
    07:00 +6°C° 0 mm 4 mps 663 mmHg 81%
    08:00 +6°C° 0 mm 4 mps 664 mmHg 78%
    09:00 +7°C° 0 mm 4 mps 664 mmHg 75%
    10:00 +7°C° 0 mm 4 mps 665 mmHg 72%
    11:00 +8°C° 0 mm 4 mps 665 mmHg 69%
    12:00 +8°C° 0 mm 4 mps 665 mmHg 65%
    13:00 +10°C° 0 mm 3 mps 665 mmHg 62%
    14:00 +10°C° 0 mm 3 mps 665 mmHg 61%
    15:00 +10°C° 0 mm 2 mps 665 mmHg 61%
    16:00 +10°C° 0 mm 2 mps 665 mmHg 61%
    17:00 +10°C° 0.1 mm 2 mps 665 mmHg 61%
    18:00 +9°C° 0.1 mm 2 mps 665 mmHg 62%
    19:00 +9°C° 0.1 mm 2 mps 665 mmHg 63%
    20:00 +9°C° 0.3 mm 2 mps 665 mmHg 69%
    21:00 +8°C° 0.3 mm 2 mps 664 mmHg 74%
    22:00 +8°C° 0.3 mm 1 mps 664 mmHg 79%
    23:00 +6°C° 0.9 mm 2 mps 664 mmHg 84%

    22 June, Saturday

    Time Temperature Precipitation Wind Pressure Humidity
    00:00 +6°C° 0.9 mm 2 mps 664 mmHg 88%
    01:00 +5°C° 0.9 mm 2 mps 663 mmHg 92%
    02:00 +5°C° 0.8 mm 2 mps 663 mmHg 93%
    03:00 +5°C° 0.8 mm 2 mps 663 mmHg 94%
    04:00 +4°C° 0.8 mm 2 mps 662 mmHg 95%
    05:00 +4°C° 1.9 mm 2 mps 662 mmHg 94%
    06:00 +3°C° 1.9 mm 2 mps 662 mmHg 94%
    07:00 +3°C° 1.9 mm 2 mps 662 mmHg 94%
    08:00 +2°C° 0.4 mm 3 mps 662 mmHg 91%
    09:00 +3°C° 0.4 mm 3 mps 663 mmHg 89%
    10:00 +3°C° 0.4 mm 3 mps 663 mmHg 86%
    11:00 +3°C° 0 mm 4 mps 663 mmHg 83%
    12:00 +4°C° 0 mm 4 mps 663 mmHg 80%
    13:00 +3°C° 0 mm 5 mps 664 mmHg 76%
    14:00 +3°C° 0.1 mm 5 mps 664 mmHg 78%
    15:00 +3°C° 0.1 mm 5 mps 664 mmHg 81%
    16:00 +3°C° 0.1 mm 4 mps 665 mmHg 83%
    17:00 +4°C° 0.1 mm 4 mps 665 mmHg 81%
    18:00 +4°C° 0.1 mm 4 mps 666 mmHg 79%
    19:00 +3°C° 0.1 mm 5 mps 666 mmHg 76%
    20:00 +3°C° 0.1 mm 4 mps 667 mmHg 80%
    21:00 +3°C° 0.1 mm 4 mps 667 mmHg 84%
    22:00 +1°C° 0.1 mm 4 mps 667 mmHg 88%
    23:00 +1°C° 0.1 mm 4 mps 667 mmHg 88%
    Show more